Regional Weather Roundup
Issued by NWS

Home | Current Version | Previous Version | Text Only | Print | Product List | Glossary On
Versions: 1 2 3 4 5 6 7 8 9 10 11 12 13 14 15 16 17 18 19 20 21 22 23 24 25 26 27 28 29 30 31 32 33 34 35 36 37 38 39 40 41 42 43 44 45 46 47 48 49 50
000
ASUS44 KOUN 022010
RWROK

WEATHER ROUNDUP FOR OKLAHOMA
NATIONAL WEATHER SERVICE NORMAN OK
300 PM CDT MON MAY 02 2016

NOTE: "FAIR" INDICATES FEW OR NO CLOUDS BELOW 12,000 FEET WITH NO
      SIGNIFICANT WEATHER AND/OR OBSTRUCTIONS TO VISIBILITY.

OKZ001>007-009>012-014-015-017-022100-
NORTHWEST OKLAHOMA AND THE PANHANDLE

CITY           SKY/WX    TMP DP  RH WIND       PRES   REMARKS
GAGE           PTSUNNY   62  36  37 N7G21     30.16F
GUYMON         SUNNY     59  32  36 NW14      30.18F
$$

OKZ016-021>023-033>039-044-045-022100-
SOUTHWEST OKLAHOMA

CITY           SKY/WX    TMP DP  RH WIND       PRES   REMARKS
LAWTON/REGL    PTSUNNY   65  44  46 N15G21    30.14F
FREDERICK      MOSUNNY   67  42  40 N10G21    30.13F
CLINTON        PTSUNNY   63  38  39 N13G22    30.17F
HOBART         MOSUNNY   65  41  41 N16G23    30.16F
$$

OKZ018>020-024>031-022100-
CENTRAL OKLAHOMA

CITY           SKY/WX    TMP DP  RH WIND       PRES   REMARKS
OKLAHOMA CITY  PTSUNNY   62  43  49 NW17G23   30.14F
OKC/WILEY POST CLOUDY    61  44  53 N15       30.15F
STILLWATER     CLOUDY    60  44  55 NW10G18   30.14F
GUTHRIE        CLOUDY    59  43  55 VRB7      30.15S
$$

OKZ008-013-054>072-022100-
NORTHEAST OKLAHOMA

CITY           SKY/WX    TMP DP  RH WIND       PRES   REMARKS
TULSA          CLOUDY    59  44  57 NW13      30.11F
TULSA/JONES    PTSUNNY   62  44  51 N7        30.12F
PONCA CITY     CLOUDY    59  43  55 NW9       30.14F
BARTLESVILLE   CLOUDY    58  43  57 CALM      30.14F
MUSKOGEE       CLOUDY    57  46  66 NW16      30.12F
$$

OKZ032-040>043-046>053-073>077-022100-
SOUTH CENTRAL/SOUTHEAST OKLAHOMA

CITY           SKY/WX    TMP DP  RH WIND       PRES   REMARKS
ARDMORE/DWNTWN CLOUDY    59  43  55 N8G17     30.13S
MCALESTER      CLOUDY    59  47  64 N9        30.12S
$$





USA.gov is the U.S. government's official web portal to all federal, state and local government web resources and services.